Minot, ND

3:51 AM CDT on March 25, 2017 (GMT -0500)
Minot International

Weather History for KMOT - January, 2012

Change the Weather History Date:

Thursday, January 12, 2012

  Actual Average Record
Temperature  
Mean Temperature 5 °F 12 °F  
Max Temperature 14 °F 20 °F 56 °F (1987)
Min Temperature -5 °F 3 °F -41 °F (1916)
Degree Days  
Heating Degree Days 60 53  
Month to date heating degree days 416 636  
Since 1 July heating degree days 3306 4231  
Moisture  
Dew Point -6 °F    
Average Humidity 60    
Maximum Humidity 79    
Minimum Humidity 40    
Precipitation  
Precipitation 0.00 in 0.02 in 0.22 in (1993)
Month to date precipitation T 0.21  
Year to date precipitation T 0.21  
Sea Level Pressure  
Sea Level Pressure 30.21 in    
Wind  
Wind Speed 5 mph (WNW)    
Max Wind Speed 17 mph    
Max Gust Speed 23 mph    
Visibility 10 miles    
Events      
T = Trace of Precipitation, MM = Missing Value Source: NWS Daily Summary

Daily Weather History Graph

Daily Weather History Graph

Search for Another Location

Airport or City:

Trip Planner

Search our weather history database for the weather conditions in past years. The results will help you decide how hot, cold, wet, or windy it might be!

Date:

Astronomy

Jan. 12, 2012 Rise Set
Actual Time 8:33 AM CST 5:13 PM CST
Civil Twilight 7:57 AM CST 5:49 PM CST
Nautical Twilight 7:18 AM CST 6:28 PM CST
Astronomical Twilight 6:40 AM CST 7:06 PM CST
Moon 9:45 PM CST (1/12) 9:57 AM CST (1/12)
Length of Visible Light 9h 52m
Length of Day
8h 40m
Waning Gibbous, 87% of the Moon is Illuminated
Jan 12
Waning Gibbous
Jan 16
Last Quarter
Jan 23
New
Jan 30
First Quarter
Feb 7
Full

Hourly Weather History & Observations

Time (CST) Temp. Windchill Dew Point Humidity Pressure Visibility Wind Dir Wind Speed Gust Speed Precip Events Conditions
12:54 AM 1.0 °F -17.3 °F -7.1 °F 69% 30.31 in 10.0 mi NW 13.8 mph 21.9 mph N/A   Clear
1:54 AM -0.0 °F -17.1 °F -7.1 °F 72% 30.32 in 10.0 mi WNW 11.5 mph - N/A   Clear
2:54 AM -0.9 °F -18.3 °F -8.0 °F 72% 30.32 in 10.0 mi NW 11.5 mph - N/A   Clear
3:54 AM -2.0 °F -16.6 °F -9.0 °F 72% 30.31 in 10.0 mi WNW 8.1 mph - N/A   Clear
4:54 AM -2.9 °F -16.5 °F -9.9 °F 72% 30.30 in 10.0 mi WNW 6.9 mph - N/A   Clear
5:54 AM -2.0 °F -16.6 °F -9.0 °F 72% 30.29 in 10.0 mi WNW 8.1 mph - N/A   Clear
6:54 AM -2.9 °F -15.0 °F -9.0 °F 75% 30.30 in 10.0 mi WNW 5.8 mph - N/A   Clear
7:54 AM -4.0 °F -16.3 °F -9.9 °F 76% 30.29 in 10.0 mi West 5.8 mph - N/A   Clear
8:54 AM -2.0 °F -15.4 °F -8.0 °F 76% 30.29 in 10.0 mi WSW 6.9 mph - N/A   Clear
9:54 AM 1.9 °F -9.2 °F -5.1 °F 72% 30.29 in 10.0 mi WNW 5.8 mph - N/A   Clear
10:54 AM 3.9 °F -6.9 °F -5.1 °F 66% 30.28 in 10.0 mi NW 5.8 mph - N/A   Clear
11:54 AM 7.0 °F 0.1 °F -4.0 °F 61% 30.23 in 10.0 mi North 3.5 mph - N/A   Clear
12:54 PM 9.0 °F - -6.0 °F 51% 30.19 in 10.0 mi Calm Calm - N/A   Clear
1:54 PM 10.9 °F - -7.1 °F 44% 30.16 in 10.0 mi Calm Calm - N/A   Clear
2:54 PM 14.0 °F - -8.0 °F 37% 30.15 in 10.0 mi Calm Calm - N/A   Clear
3:54 PM 14.0 °F - -6.0 °F 41% 30.15 in 10.0 mi Calm Calm - N/A   Clear
4:54 PM 8.6 °F -1.3 °F -2.2 °F 62% 30.03 in 10.0 mi East 5.8 mph - N/A   Scattered Clouds
5:54 PM 8.1 °F -2.0 °F -2.0 °F 64% 30.15 in 10.0 mi ESE 5.8 mph - N/A   Scattered Clouds
6:54 PM 10.9 °F 4.7 °F -2.0 °F 56% 30.15 in 10.0 mi SSE 3.5 mph - N/A   Overcast
7:54 PM 9.0 °F -2.2 °F -2.0 °F 61% 30.13 in 10.0 mi ESE 6.9 mph - N/A   Scattered Clouds
8:54 PM 5.0 °F -4.1 °F -2.9 °F 70% 30.12 in 10.0 mi East 4.6 mph - N/A   Partly Cloudy
9:54 PM 6.1 °F - -2.9 °F 67% 30.11 in 10.0 mi Calm Calm - N/A   Clear
10:54 PM 5.0 °F -4.1 °F -2.0 °F 73% 30.09 in 10.0 mi SSE 4.6 mph - N/A   Partly Cloudy
11:54 PM 5.0 °F - -0.9 °F 76% 30.07 in 10.0 mi Calm Calm - N/A   Partly Cloudy